Hickory, NC

11:13 AM EDT on August 29, 2016 (GMT -0400)
Hickory Regional

Weather History for KHKY - January, 2012

Change the Weather History Date:

Saturday, January 28, 2012

  Actual Average Record
Temperature  
Mean Temperature 44 °F -  
Max Temperature 60 °F 50 °F 75 °F (1999)
Min Temperature 28 °F 27 °F 6 °F (1986)
Degree Days  
Heating Degree Days 21    
Moisture  
Dew Point 30 °F    
Average Humidity 64    
Maximum Humidity 93    
Minimum Humidity 38    
Precipitation  
Precipitation 0.00 in - - ()
Sea Level Pressure  
Sea Level Pressure 30.07 in    
Wind  
Wind Speed 4 mph (NW)    
Max Wind Speed 17 mph    
Max Gust Speed 29 mph    
Visibility 9 miles    
Events      
Averages and records for this station are not official NWS values.
T = Trace of Precipitation, MM = Missing Value Source: NWS Daily Summary

Daily Weather History Graph

Daily Weather History Graph

Search for Another Location

Airport or City:

Trip Planner

Search our weather history database for the weather conditions in past years. The results will help you decide how hot, cold, wet, or windy it might be!

Date:

Astronomy

Jan. 28, 2012 Rise Set
Actual Time 7:28 AM EST 5:48 PM EST
Civil Twilight 7:01 AM EST 6:15 PM EST
Nautical Twilight 6:31 AM EST 6:46 PM EST
Astronomical Twilight 6:00 AM EST 7:16 PM EST
Moon 10:03 AM EST (1/28) 11:20 PM EST (1/28)
Length of Visible Light 11h 13m
Length of Day
10h 19m
Waxing Crescent, 27% of the Moon is Illuminated
Jan 28
Waxing Crescent
Jan 30
First Quarter
Feb 7
Full
Feb 14
Last Quarter
Feb 21
New

Hourly Weather History & Observations

Time (EST) Temp. Windchill Dew Point Humidity Pressure Visibility Wind Dir Wind Speed Gust Speed Precip Events Conditions
12:53 AM 36.0 °F 33.3 °F 30.9 °F 82% 29.99 in 10.0 mi North 3.5 mph - N/A   Clear
1:53 AM 36.0 °F - 30.9 °F 82% 30.00 in 10.0 mi Calm Calm - N/A   Clear
2:53 AM 36.0 °F - 30.9 °F 82% 30.00 in 10.0 mi Calm Calm - N/A   Clear
3:53 AM 32.0 °F - 30.0 °F 92% 30.01 in 9.0 mi Calm Calm - N/A   Clear
4:03 AM 32.0 °F - 30.2 °F 93% 30.03 in 1.8 mi Calm Calm - N/A   Clear
4:09 AM 32.0 °F - 30.2 °F 93% 30.04 in 3.0 mi Calm Calm - N/A   Clear
4:53 AM 32.0 °F - 30.0 °F 92% 30.03 in 10.0 mi Calm Calm - N/A   Clear
5:53 AM 33.1 °F - 30.0 °F 89% 30.05 in 10.0 mi Calm Calm - N/A   Clear
6:53 AM 28.9 °F 25.2 °F 27.0 °F 92% 30.07 in 10.0 mi NNW 3.5 mph - N/A   Clear
7:53 AM 32.0 °F 27.5 °F 28.9 °F 88% 30.09 in 10.0 mi WNW 4.6 mph - N/A   Clear
8:53 AM 36.0 °F 31.1 °F 30.9 °F 82% 30.08 in 10.0 mi NW 5.8 mph - N/A   Clear
9:53 AM 43.0 °F 39.5 °F 35.1 °F 74% 30.09 in 10.0 mi West 5.8 mph - N/A   Clear
10:53 AM 51.1 °F - 34.0 °F 52% 30.07 in 10.0 mi Variable 4.6 mph - N/A   Clear
11:53 AM 55.0 °F - 34.0 °F 45% 30.04 in 10.0 mi South 6.9 mph - N/A   Clear
12:53 PM 57.9 °F - 33.1 °F 39% 30.01 in 10.0 mi West 6.9 mph - N/A   Clear
1:53 PM 60.1 °F - 35.1 °F 39% 30.00 in 10.0 mi NW 5.8 mph - N/A   Clear
2:53 PM 60.1 °F - 34.0 °F 38% 30.00 in 10.0 mi NW 9.2 mph 16.1 mph N/A   Mostly Cloudy
3:53 PM 57.0 °F - 34.0 °F 42% 30.03 in 10.0 mi NW 17.3 mph 25.3 mph N/A   Mostly Cloudy
4:53 PM 53.1 °F - 35.1 °F 50% 30.08 in 10.0 mi NW 15.0 mph 25.3 mph N/A   Clear
5:53 PM 48.9 °F - 30.0 °F 48% 30.10 in 10.0 mi WNW 17.3 mph 28.8 mph N/A   Clear
6:53 PM 46.9 °F - 27.0 °F 46% 30.15 in 10.0 mi Variable 6.9 mph - N/A   Clear
7:53 PM 46.0 °F 40.6 °F 24.1 °F 42% 30.18 in 10.0 mi NW 11.5 mph 19.6 mph N/A   Clear
8:53 PM 44.1 °F 38.6 °F 24.1 °F 45% 30.18 in 10.0 mi NW 10.4 mph - N/A   Clear
9:53 PM 42.1 °F 38.4 °F 21.9 °F 45% 30.19 in 10.0 mi NW 5.8 mph - N/A   Clear
10:53 PM 41.0 °F 38.0 °F 21.0 °F 45% 30.20 in 10.0 mi NNW 4.6 mph - N/A   Clear
11:53 PM 39.0 °F 34.8 °F 19.9 °F 46% 30.21 in 10.0 mi NW 5.8 mph - N/A   Clear